QPF
0.02 0.02 0.01 0.00 0.00 0.00 0.00 0.00 0.01 0.01 0.02 0.02 0.01 0.00 0.00 0.00 0.00 0.00 0.00 0.00 0.00 0.00 0.00 0.00 0.00 0.00 0.00 0.01 0.01 0.03 0.05 0.05 0.04 0.03 0.03 0.03 0.04 0.04 0.04 0.03 0.02 0.02 0.01 0.01
0.01 0.00 0.00 0.00 0.00 0.00 0.00 0.00 0.00 0.02 0.05 0.04 0.01 0.01 0.01 0.00 0.00 0.00 0.01 0.01 0.00 0.00 0.00 0.01 0.00 0.00 0.00 0.00 0.01 0.01 0.02 0.06 0.07 0.07 0.06 0.04 0.04 0.03 0.04 0.03 0.03 0.03 0.02 0.01
0.01 0.01 0.00 0.00 0.00 0.00 0.00 0.00 0.00 0.02 0.04 0.03 0.01 0.01 0.01 0.02 0.01 0.00 0.00 0.00 0.00 0.00 0.01 0.01 0.01 0.00 0.00 0.01 0.01 0.01 0.02 0.03 0.04 0.06 0.06 0.05 0.03 0.03 0.02 0.02 0.03 0.03 0.02 0.02
0.03 0.02 0.02 0.01 0.00 0.01 0.01 0.00 0.01 0.03 0.02 0.01 0.01 0.01 0.03 0.02 0.00 0.00 0.00 0.00 0.00 0.01 0.01 0.01 0.01 0.01 0.01 0.01 0.01 0.01 0.01 0.01 0.01 0.02 0.02 0.03 0.03 0.02 0.01 0.02 0.02 0.02 0.02 0.02
0.03 0.03 0.02 0.00 0.00 0.01 0.02 0.01 0.01 0.02 0.01 0.01 0.01 0.01 0.01 0.01 0.01 0.01 0.01 0.01 0.01 0.01 0.01 0.01 0.01 0.01 0.01 0.01 0.01 0.01 0.01 0.01 0.01 0.01 0.01 0.02 0.02 0.01 0.01 0.01 0.01 0.01 0.02 0.02
0.02 0.04 0.03 0.01 0.00 0.01 0.01 0.02 0.00 0.00 0.00 0.01 0.03 0.06 0.05 0.02 0.01 0.01 0.02 0.01 0.02 0.02 0.01 0.02 0.02 0.01 0.00 0.01 0.01 0.01 0.01 0.01 0.01 0.01 0.02 0.02 0.02 0.02 0.02 0.02 0.01 0.01 0.02 0.02
0.02 0.03 0.03 0.01 0.00 0.01 0.02 0.03 0.01 0.01 0.01 0.02 0.04 0.07 0.05 0.03 0.02 0.02 0.03 0.04 0.05 0.05 0.05 0.03 0.01 0.00 0.00 0.01 0.01 0.01 0.01 0.02 0.02 0.02 0.02 0.02 0.03 0.03 0.03 0.02 0.02 0.02 0.02 0.01
0.01 0.02 0.03 0.01 0.00 0.01 0.02 0.02 0.01 0.01 0.01 0.01 0.03 0.04 0.03 0.03 0.03 0.04 0.04 0.05 0.05 0.04 0.02 0.01 0.00 0.01 0.01 0.01 0.02 0.02 0.03 0.04 0.05 0.06 0.04 0.03 0.04 0.03 0.03 0.03 0.03 0.02 0.02 0.02
0.03 0.02 0.02 0.01 0.01 0.01 0.01 0.01 0.01 0.01 0.01 0.01 0.03 0.04 0.03 0.02 0.02 0.02 0.04 0.05 0.03 0.02 0.02 0.02 0.00 0.01 0.02 0.02 0.02 0.02 0.03 0.03 0.04 0.06 0.08 0.10 0.09 0.06 0.05 0.04 0.04 0.03 0.02 0.01
0.02 0.01 0.01 0.00 0.02 0.03 0.01 0.00 0.00 0.00 0.00 0.00 0.01 0.02 0.01 0.01 0.01 0.02 0.02 0.04 0.04 0.04 0.05 0.04 0.02 0.02 0.02 0.02 0.02 0.03 0.03 0.03 0.03 0.04 0.04 0.06 0.08 0.10 0.09 0.07 0.04 0.02 0.02 0.02
0.02 0.02 0.01 0.01 0.02 0.02 0.01 0.01 0.01 0.00 0.00 0.00 0.00 0.01 0.01 0.01 0.00 0.01 0.02 0.01 0.02 0.04 0.07 0.05 0.03 0.02 0.02 0.01 0.02 0.02 0.02 0.03 0.04 0.05 0.06 0.05 0.05 0.05 0.05 0.04 0.02 0.02 0.02 0.02
0.03 0.03 0.01 0.01 0.00 0.01 0.02 0.01 0.01 0.01 0.00 0.00 0.00 0.00 0.00 0.00 0.00 0.01 0.00 0.01 0.01 0.01 0.03 0.03 0.02 0.01 0.01 0.01 0.01 0.02 0.02 0.03 0.05 0.05 0.06 0.06 0.07 0.06 0.05 0.04 0.03 0.03 0.02 0.03
0.03 0.02 0.02 0.01 0.01 0.01 0.01 0.01 0.01 0.01 0.00 0.00 0.00 0.00 0.00 0.00 0.01 0.01 0.01 0.01 0.00 0.01 0.01 0.02 0.01 0.01 0.01 0.01 0.01 0.03 0.04 0.05 0.05 0.04 0.05 0.06 0.08 0.08 0.06 0.04 0.03 0.03 0.02 0.02
0.05 0.04 0.05 0.04 0.03 0.02 0.01 0.01 0.01 0.01 0.01 0.01 0.01 0.01 0.01 0.01 0.01 0.01 0.01 0.01 0.00 0.00 0.01 0.01 0.01 0.01 0.01 0.01 0.01 0.03 0.04 0.05 0.05 0.05 0.05 0.05 0.06 0.06 0.07 0.07 0.05 0.04 0.03 0.03
0.03 0.02 0.03 0.03 0.02 0.01 0.02 0.02 0.02 0.01 0.02 0.02 0.01 0.01 0.01 0.01 0.01 0.01 0.01 0.01 0.02 0.02 0.02 0.02 0.02 0.02 0.02 0.02 0.02 0.02 0.02 0.03 0.03 0.03 0.04 0.06 0.05 0.05 0.06 0.06 0.07 0.07 0.06 0.04
0.01 0.01 0.02 0.02 0.02 0.01 0.02 0.04 0.03 0.02 0.03 0.03 0.03 0.02 0.01 0.01 0.01 0.01 0.01 0.01 0.02 0.02 0.02 0.02 0.02 0.02 0.02 0.02 0.02 0.03 0.03 0.03 0.03 0.02 0.02 0.02 0.03 0.03 0.04 0.06 0.06 0.07 0.06 0.06
0.02 0.02 0.02 0.02 0.02 0.02 0.02 0.04 0.03 0.02 0.03 0.05 0.05 0.02 0.01 0.01 0.01 0.01 0.01 0.01 0.01 0.01 0.01 0.01 0.02 0.02 0.02 0.02 0.03 0.03 0.03 0.02 0.02 0.02 0.02 0.02 0.02 0.03 0.05 0.06 0.06 0.06 0.06 0.05
0.01 0.01 0.02 0.03 0.03 0.02 0.02 0.02 0.01 0.01 0.01 0.02 0.04 0.04 0.03 0.02 0.01 0.01 0.01 0.01 0.01 0.01 0.01 0.02 0.03 0.02 0.02 0.03 0.04 0.04 0.03 0.03 0.03 0.03 0.03 0.03 0.03 0.03 0.04 0.04 0.04 0.05 0.05 0.04
0.02 0.03 0.04 0.03 0.03 0.02 0.02 0.02 0.02 0.01 0.01 0.02 0.05 0.09 0.06 0.04 0.03 0.03 0.02 0.02 0.02 0.02 0.03 0.03 0.03 0.03 0.03 0.03 0.03 0.03 0.03 0.04 0.04 0.05 0.06 0.07 0.06 0.05 0.05 0.04 0.04 0.04 0.04 0.04
0.03 0.04 0.04 0.03 0.02 0.01 0.01 0.01 0.01 0.01 0.02 0.02 0.02 0.04 0.04 0.03 0.03 0.03 0.03 0.02 0.02 0.02 0.03 0.03 0.03 0.03 0.03 0.03 0.03 0.03 0.03 0.03 0.04 0.04 0.05 0.06 0.06 0.06 0.05 0.04 0.04 0.04 0.03 0.04
0.03 0.03 0.03 0.03 0.02 0.01 0.01 0.01 0.01 0.02 0.02 0.02 0.03 0.04 0.04 0.04 0.03 0.03 0.03 0.03 0.02 0.03 0.03 0.03 0.03 0.03 0.03 0.03 0.02 0.02 0.02 0.02 0.03 0.03 0.04 0.04 0.05 0.05 0.05 0.05 0.03 0.03 0.03 0.02
0.04 0.04 0.03 0.03 0.03 0.02 0.02 0.02 0.02 0.02 0.02 0.03 0.05 0.06 0.04 0.04 0.03 0.02 0.03 0.04 0.03 0.03 0.03 0.03 0.03 0.03 0.02 0.02 0.02 0.02 0.02 0.03 0.04 0.04 0.05 0.05 0.05 0.04 0.03 0.03 0.03 0.03 0.02 0.02
0.05 0.05 0.05 0.04 0.04 0.03 0.02 0.03 0.04 0.03 0.03 0.04 0.04 0.04 0.04 0.04 0.04 0.04 0.04 0.04 0.04 0.04 0.03 0.03 0.03 0.03 0.02 0.02 0.02 0.02 0.03 0.04 0.04 0.04 0.05 0.04 0.04 0.04 0.03 0.03 0.02 0.02 0.02 0.02
0.06 0.05 0.05 0.05 0.05 0.04 0.03 0.03 0.04 0.04 0.04 0.03 0.03 0.04 0.05 0.05 0.04 0.04 0.03 0.03 0.03 0.03 0.03 0.04 0.04 0.03 0.03 0.03 0.03 0.03 0.03 0.03 0.03 0.03 0.03 0.04 0.05 0.04 0.03 0.03 0.03 0.03 0.03 0.03
0.06 0.05 0.05 0.04 0.04 0.04 0.04 0.04 0.03 0.03 0.03 0.03 0.03 0.04 0.04 0.03 0.02 0.02 0.02 0.02 0.03 0.03 0.02 0.03 0.04 0.03 0.03 0.03 0.02 0.02 0.02 0.03 0.03 0.03 0.04 0.04 0.05 0.05 0.04 0.04 0.03 0.03 0.03 0.03
0.04 0.05 0.05 0.04 0.04 0.03 0.04 0.03 0.03 0.03 0.03 0.04 0.04 0.03 0.02 0.02 0.02 0.02 0.02 0.02 0.03 0.03 0.02 0.03 0.03 0.03 0.02 0.02 0.03 0.02 0.02 0.03 0.04 0.04 0.03 0.04 0.04 0.05 0.04 0.04 0.03 0.02 0.03 0.04
0.04 0.04 0.04 0.03 0.03 0.03 0.03 0.02 0.02 0.02 0.02 0.03 0.03 0.03 0.03 0.04 0.03 0.02 0.03 0.04 0.03 0.03 0.02 0.02 0.02 0.02 0.02 0.01 0.02 0.02 0.03 0.04 0.05 0.06 0.05 0.05 0.05 0.04 0.03 0.02 0.02 0.03 0.03 0.04
MSLP
1005.50 1005.66 1005.73 1005.74 1005.69 1005.60 1005.47 1005.27 1005.02 1004.71 1004.35 1003.97 1003.58 1003.23 1002.93 1002.71 1002.56 1002.48 1002.45 1002.45 1002.45 1002.44 1002.42 1002.41 1002.43 1002.53 1002.72 1003.05 1003.53 1004.14 1004.88 1005.70 1006.57 1007.43 1008.27 1009.04 1009.74 1010.37 1010.93 1011.45 1011.96 1012.46 1012.97 1013.51
1006.03 1006.12 1006.07 1005.92 1005.68 1005.38 1005.06 1004.72 1004.38 1004.06 1003.78 1003.54 1003.35 1003.23 1003.16 1003.15 1003.17 1003.21 1003.23 1003.21 1003.15 1003.04 1002.88 1002.72 1002.58 1002.52 1002.56 1002.76 1003.11 1003.64 1004.31 1005.10 1005.97 1006.87 1007.77 1008.62 1009.41 1010.13 1010.77 1011.36 1011.91 1012.43 1012.95 1013.47
1006.60 1006.65 1006.54 1006.28 1005.90 1005.47 1005.01 1004.57 1004.18 1003.86 1003.63 1003.50 1003.47 1003.52 1003.64 1003.80 1003.95 1004.08 1004.14 1004.12 1003.99 1003.78 1003.50 1003.19 1002.90 1002.68 1002.57 1002.61 1002.84 1003.25 1003.84 1004.58 1005.43 1006.34 1007.28 1008.20 1009.07 1009.88 1010.61 1011.27 1011.87 1012.43 1012.96 1013.48
1007.12 1007.16 1007.02 1006.72 1006.29 1005.79 1005.27 1004.79 1004.37 1004.07 1003.89 1003.84 1003.92 1004.09 1004.34 1004.60 1004.85 1005.03 1005.11 1005.07 1004.89 1004.60 1004.22 1003.78 1003.35 1002.98 1002.73 1002.63 1002.73 1003.02 1003.51 1004.17 1004.98 1005.88 1006.83 1007.79 1008.72 1009.60 1010.40 1011.13 1011.79 1012.38 1012.93 1013.46
1007.44 1007.50 1007.38 1007.10 1006.69 1006.21 1005.70 1005.22 1004.83 1004.55 1004.42 1004.43 1004.57 1004.83 1005.14 1005.47 1005.76 1005.97 1006.05 1005.99 1005.77 1005.41 1004.95 1004.42 1003.89 1003.41 1003.03 1002.81 1002.78 1002.95 1003.33 1003.90 1004.64 1005.49 1006.42 1007.38 1008.34 1009.26 1010.11 1010.89 1011.59 1012.22 1012.80 1013.34
1007.47 1007.56 1007.50 1007.28 1006.95 1006.54 1006.10 1005.69 1005.35 1005.13 1005.04 1005.09 1005.28 1005.57 1005.91 1006.26 1006.57 1006.77 1006.85 1006.77 1006.53 1006.14 1005.63 1005.05 1004.45 1003.90 1003.43 1003.12 1002.98 1003.05 1003.32 1003.78 1004.42 1005.20 1006.07 1007.00 1007.93 1008.85 1009.71 1010.51 1011.24 1011.90 1012.50 1013.06
1007.16 1007.29 1007.29 1007.17 1006.94 1006.65 1006.32 1006.02 1005.77 1005.62 1005.59 1005.68 1005.89 1006.19 1006.53 1006.88 1007.17 1007.37 1007.43 1007.34 1007.09 1006.70 1006.19 1005.60 1004.99 1004.41 1003.90 1003.53 1003.32 1003.29 1003.46 1003.81 1004.34 1005.01 1005.78 1006.63 1007.50 1008.37 1009.21 1009.99 1010.72 1011.39 1012.01 1012.60
1006.57 1006.71 1006.78 1006.75 1006.65 1006.49 1006.30 1006.12 1005.99 1005.92 1005.95 1006.07 1006.29 1006.58 1006.91 1007.23 1007.50 1007.68 1007.74 1007.65 1007.42 1007.06 1006.58 1006.03 1005.45 1004.89 1004.38 1003.99 1003.74 1003.65 1003.73 1003.97 1004.38 1004.92 1005.57 1006.30 1007.07 1007.86 1008.63 1009.37 1010.07 1010.74 1011.37 1011.97
1005.80 1005.95 1006.06 1006.13 1006.14 1006.11 1006.06 1006.00 1005.97 1005.99 1006.07 1006.23 1006.45 1006.73 1007.02 1007.31 1007.55 1007.71 1007.77 1007.70 1007.50 1007.19 1006.78 1006.30 1005.79 1005.29 1004.83 1004.46 1004.20 1004.07 1004.08 1004.23 1004.52 1004.93 1005.44 1006.03 1006.67 1007.34 1008.02 1008.70 1009.36 1010.01 1010.64 1011.27
1005.04 1005.17 1005.31 1005.43 1005.54 1005.62 1005.68 1005.73 1005.79 1005.88 1006.01 1006.18 1006.40 1006.64 1006.90 1007.15 1007.35 1007.49 1007.55 1007.50 1007.35 1007.11 1006.78 1006.40 1005.99 1005.58 1005.20 1004.88 1004.64 1004.50 1004.46 1004.54 1004.72 1005.00 1005.38 1005.83 1006.33 1006.88 1007.46 1008.07 1008.68 1009.31 1009.94 1010.59
1004.43 1004.54 1004.68 1004.84 1005.00 1005.15 1005.29 1005.41 1005.54 1005.68 1005.83 1006.00 1006.20 1006.41 1006.62 1006.82 1006.98 1007.10 1007.15 1007.12 1007.02 1006.85 1006.62 1006.34 1006.04 1005.74 1005.45 1005.21 1005.01 1004.88 1004.82 1004.84 1004.94 1005.12 1005.37 1005.69 1006.07 1006.51 1007.00 1007.54 1008.11 1008.72 1009.37 1010.04
1004.09 1004.17 1004.30 1004.46 1004.64 1004.82 1005.00 1005.16 1005.32 1005.47 1005.62 1005.77 1005.93 1006.09 1006.25 1006.40 1006.52 1006.60 1006.64 1006.63 1006.57 1006.46 1006.31 1006.14 1005.95 1005.75 1005.56 1005.40 1005.26 1005.15 1005.09 1005.08 1005.12 1005.22 1005.38 1005.60 1005.89 1006.25 1006.67 1007.16 1007.71 1008.32 1008.97 1009.67
1004.04 1004.08 1004.18 1004.33 1004.49 1004.67 1004.84 1005.01 1005.16 1005.29 1005.42 1005.54 1005.65 1005.76 1005.85 1005.94 1006.01 1006.06 1006.08 1006.07 1006.04 1005.98 1005.90 1005.81 1005.72 1005.62 1005.52 1005.43 1005.35 1005.28 1005.24 1005.21 1005.22 1005.27 1005.36 1005.52 1005.75 1006.06 1006.45 1006.92 1007.46 1008.08 1008.76 1009.49
1004.18 1004.20 1004.26 1004.37 1004.50 1004.64 1004.79 1004.92 1005.04 1005.14 1005.22 1005.29 1005.35 1005.40 1005.44 1005.47 1005.49 1005.50 1005.50 1005.49 1005.47 1005.45 1005.42 1005.40 1005.37 1005.35 1005.32 1005.30 1005.27 1005.24 1005.21 1005.19 1005.19 1005.21 1005.28 1005.41 1005.61 1005.90 1006.28 1006.76 1007.32 1007.97 1008.67 1009.42
1004.39 1004.37 1004.39 1004.45 1004.53 1004.62 1004.72 1004.80 1004.87 1004.93 1004.97 1004.99 1005.00 1005.00 1004.99 1004.97 1004.95 1004.93 1004.91 1004.89 1004.88 1004.87 1004.88 1004.90 1004.92 1004.95 1004.98 1005.01 1005.02 1005.02 1005.01 1005.00 1005.00 1005.02 1005.08 1005.20 1005.41 1005.70 1006.10 1006.60 1007.19 1007.87 1008.61 1009.38
1004.48 1004.43 1004.41 1004.42 1004.45 1004.48 1004.52 1004.55 1004.58 1004.59 1004.58 1004.57 1004.54 1004.50 1004.46 1004.41 1004.37 1004.32 1004.29 1004.26 1004.25 1004.26 1004.29 1004.33 1004.39 1004.45 1004.51 1004.57 1004.60 1004.63 1004.63 1004.63 1004.64 1004.66 1004.73 1004.87 1005.09 1005.40 1005.83 1006.36 1006.98 1007.68 1008.44 1009.23
1004.34 1004.26 1004.20 1004.15 1004.13 1004.12 1004.10 1004.09 1004.07 1004.05 1004.01 1003.97 1003.93 1003.87 1003.81 1003.76 1003.70 1003.65 1003.61 1003.59 1003.59 1003.61 1003.65 1003.70 1003.78 1003.86 1003.94 1004.01 1004.06 1004.09 1004.11 1004.11 1004.12 1004.16 1004.24 1004.39 1004.62 1004.96 1005.40 1005.95 1006.60 1007.32 1008.09 1008.87
1003.92 1003.80 1003.70 1003.62 1003.55 1003.49 1003.44 1003.39 1003.34 1003.29 1003.25 1003.20 1003.14 1003.09 1003.04 1002.99 1002.94 1002.90 1002.87 1002.86 1002.87 1002.90 1002.95 1003.02 1003.11 1003.20 1003.28 1003.36 1003.41 1003.45 1003.46 1003.47 1003.49 1003.52 1003.61 1003.76 1004.00 1004.35 1004.80 1005.36 1006.01 1006.73 1007.50 1008.27
1003.24 1003.09 1002.96 1002.85 1002.74 1002.65 1002.57 1002.49 1002.43 1002.37 1002.31 1002.26 1002.22 1002.18 1002.14 1002.11 1002.08 1002.06 1002.05 1002.06 1002.09 1002.14 1002.21 1002.29 1002.39 1002.49 1002.57 1002.65 1002.70 1002.74 1002.75 1002.75 1002.76 1002.80 1002.88 1003.03 1003.26 1003.60 1004.04 1004.59 1005.23 1005.93 1006.67 1007.42
1002.44 1002.26 1002.10 1001.96 1001.82 1001.70 1001.59 1001.49 1001.41 1001.34 1001.28 1001.23 1001.19 1001.16 1001.14 1001.13 1001.13 1001.14 1001.16 1001.20 1001.25 1001.33 1001.42 1001.52 1001.63 1001.73 1001.83 1001.91 1001.97 1002.00 1002.01 1002.01 1002.01 1002.03 1002.10 1002.23 1002.45 1002.77 1003.19 1003.70 1004.30 1004.97 1005.68 1006.39
1001.64 1001.44 1001.25 1001.08 1000.91 1000.76 1000.61 1000.48 1000.37 1000.28 1000.20 1000.14 1000.10 1000.08 1000.08 1000.09 1000.11 1000.14 1000.20 1000.27 1000.36 1000.46 1000.58 1000.70 1000.83 1000.96 1001.07 1001.16 1001.22 1001.25 1001.26 1001.26 1001.25 1001.27 1001.32 1001.44 1001.63 1001.91 1002.29 1002.77 1003.33 1003.95 1004.61 1005.28
1000.96 1000.73 1000.51 1000.30 1000.08 999.88 999.68 999.50 999.34 999.21 999.10 999.01 998.96 998.93 998.93 998.95 999.00 999.07 999.15 999.26 999.39 999.53 999.68 999.85 1000.01 1000.16 1000.29 1000.39 1000.47 1000.51 1000.53 1000.53 1000.52 1000.53 1000.57 1000.67 1000.84 1001.09 1001.43 1001.86 1002.37 1002.94 1003.56 1004.20
1000.45 1000.18 999.91 999.63 999.34 999.06 998.79 998.53 998.30 998.10 997.93 997.81 997.73 997.68 997.68 997.72 997.78 997.88 998.01 998.17 998.34 998.53 998.73 998.94 999.14 999.32 999.48 999.61 999.71 999.77 999.81 999.81 999.82 999.83 999.87 999.95 1000.10 1000.33 1000.63 1001.03 1001.49 1002.02 1002.60 1003.21
1000.08 999.74 999.38 999.00 998.61 998.22 997.84 997.47 997.14 996.86 996.62 996.45 996.33 996.28 996.28 996.33 996.44 996.58 996.77 996.98 997.21 997.47 997.73 997.98 998.23 998.46 998.65 998.82 998.94 999.03 999.08 999.11 999.13 999.15 999.19 999.28 999.42 999.63 999.92 1000.29 1000.72 1001.22 1001.78 1002.36
999.75 999.29 998.81 998.29 997.76 997.22 996.70 996.21 995.77 995.39 995.08 994.86 994.72 994.66 994.69 994.78 994.94 995.16 995.42 995.71 996.02 996.35 996.68 997.00 997.30 997.57 997.81 998.01 998.16 998.28 998.35 998.41 998.44 998.48 998.54 998.64 998.79 999.00 999.28 999.64 1000.06 1000.54 1001.08 1001.66
999.31 998.70 998.05 997.36 996.65 995.94 995.27 994.64 994.08 993.61 993.25 993.00 992.86 992.84 992.91 993.08 993.33 993.64 994.00 994.39 994.81 995.22 995.63 996.02 996.37 996.69 996.97 997.20 997.38 997.52 997.62 997.69 997.75 997.82 997.90 998.02 998.19 998.41 998.71 999.06 999.49 999.97 1000.51 1001.09
998.66 997.85 997.00 996.10 995.20 994.32 993.49 992.73 992.08 991.55 991.16 990.91 990.81 990.85 991.02 991.30 991.67 992.11 992.59 993.11 993.63 994.14 994.63 995.09 995.50 995.86 996.16 996.41 996.61 996.77 996.89 996.98 997.06 997.15 997.27 997.41 997.61 997.86 998.17 998.55 998.99 999.49 1000.03 1000.62
Thickness
5814 5822 5823 5822 5826 5830 5825 5823 5816 5816 5818 5826 5835 5837 5835 5834 5832 5828 5826 5824 5821 5819 5816 5814 5811 5808 5805 5801 5798 5794 5789 5784 5779 5776 5774 5770 5767 5764 5762 5759 5757 5754 5751 5749
5801 5817 5821 5819 5827 5830 5829 5829 5824 5820 5819 5834 5836 5834 5827 5825 5823 5818 5817 5816 5815 5812 5809 5806 5804 5802 5799 5796 5793 5789 5783 5778 5775 5772 5768 5765 5761 5759 5756 5754 5752 5749 5746 5744
5784 5803 5804 5798 5819 5822 5821 5827 5823 5810 5814 5827 5820 5819 5818 5818 5816 5812 5811 5810 5807 5805 5802 5800 5798 5796 5792 5790 5788 5783 5778 5774 5770 5766 5763 5759 5757 5753 5750 5748 5746 5743 5741 5739
5779 5780 5763 5802 5835 5831 5821 5821 5824 5819 5820 5821 5816 5814 5817 5817 5813 5808 5806 5804 5802 5800 5797 5795 5794 5791 5788 5785 5781 5777 5772 5769 5766 5762 5758 5755 5752 5748 5745 5743 5740 5737 5735 5733
5770 5766 5776 5803 5818 5818 5806 5803 5817 5814 5813 5815 5816 5808 5802 5806 5807 5804 5801 5799 5795 5794 5792 5789 5785 5783 5779 5776 5773 5769 5765 5762 5760 5757 5752 5749 5745 5743 5741 5737 5734 5732 5730 5727
5765 5754 5755 5781 5809 5819 5806 5786 5808 5808 5802 5802 5800 5782 5782 5795 5796 5796 5794 5791 5788 5786 5784 5779 5777 5774 5770 5766 5763 5760 5759 5757 5754 5751 5746 5743 5741 5738 5735 5732 5729 5727 5724 5722
5759 5756 5766 5789 5804 5804 5771 5768 5796 5799 5795 5792 5785 5780 5783 5788 5786 5784 5783 5781 5780 5777 5773 5770 5769 5766 5761 5758 5755 5755 5754 5750 5747 5744 5740 5738 5735 5732 5729 5726 5723 5720 5718 5716
5755 5748 5748 5786 5789 5777 5773 5786 5789 5788 5786 5782 5778 5777 5776 5777 5776 5774 5771 5770 5768 5765 5763 5763 5761 5757 5752 5749 5750 5749 5746 5742 5739 5737 5735 5733 5728 5725 5722 5719 5716 5714 5712 5709
5753 5750 5766 5778 5777 5781 5784 5780 5778 5777 5776 5773 5767 5764 5765 5766 5765 5764 5762 5759 5758 5754 5752 5751 5751 5749 5744 5743 5743 5740 5737 5734 5732 5731 5729 5726 5722 5718 5715 5712 5710 5709 5706 5704
5747 5754 5765 5770 5772 5771 5772 5772 5773 5773 5770 5768 5761 5758 5756 5757 5755 5752 5750 5749 5748 5745 5742 5741 5741 5741 5739 5737 5735 5732 5728 5726 5726 5724 5723 5720 5716 5713 5709 5705 5705 5704 5701 5699
5736 5744 5752 5755 5757 5758 5761 5761 5761 5762 5762 5760 5754 5751 5749 5747 5745 5743 5741 5740 5739 5735 5732 5730 5732 5731 5731 5729 5727 5723 5721 5719 5718 5718 5717 5713 5709 5707 5704 5702 5701 5698 5697 5694
5725 5735 5735 5739 5749 5751 5746 5744 5747 5748 5746 5748 5746 5742 5740 5737 5736 5735 5733 5731 5728 5727 5725 5723 5723 5722 5722 5721 5718 5714 5712 5710 5710 5710 5710 5707 5703 5700 5697 5696 5695 5692 5690 5687
5731 5735 5736 5737 5740 5739 5737 5738 5739 5737 5736 5735 5735 5733 5730 5727 5726 5725 5723 5722 5720 5718 5717 5716 5715 5714 5714 5713 5711 5707 5704 5703 5702 5702 5701 5699 5697 5693 5690 5688 5686 5684 5681 5679
5723 5722 5720 5724 5727 5729 5729 5730 5729 5729 5728 5726 5724 5722 5720 5718 5717 5714 5712 5712 5712 5710 5709 5708 5707 5706 5706 5705 5702 5700 5698 5697 5695 5694 5693 5691 5690 5688 5685 5682 5679 5677 5674 5670
5712 5714 5713 5718 5719 5719 5720 5719 5716 5715 5714 5714 5713 5711 5710 5707 5705 5703 5703 5703 5702 5700 5699 5698 5696 5696 5697 5696 5693 5691 5690 5689 5688 5687 5685 5685 5683 5683 5681 5679 5676 5673 5670 5665
5703 5707 5708 5706 5706 5707 5708 5706 5703 5703 5703 5702 5701 5700 5699 5698 5696 5695 5695 5694 5691 5689 5688 5687 5686 5687 5687 5686 5684 5682 5681 5681 5679 5679 5678 5677 5676 5675 5674 5672 5670 5667 5664 5661
5688 5690 5693 5692 5694 5696 5696 5695 5695 5695 5695 5693 5691 5691 5690 5688 5686 5685 5685 5685 5683 5682 5681 5679 5678 5679 5678 5676 5674 5673 5673 5672 5671 5671 5671 5670 5669 5667 5666 5664 5663 5661 5658 5656
5686 5686 5687 5686 5686 5686 5687 5687 5687 5685 5684 5683 5683 5681 5678 5677 5675 5675 5675 5675 5674 5673 5673 5673 5672 5670 5669 5668 5666 5665 5665 5664 5664 5664 5664 5663 5661 5660 5659 5657 5655 5653 5651 5648
5677 5677 5677 5678 5678 5678 5679 5678 5677 5677 5676 5675 5673 5669 5667 5666 5667 5667 5667 5665 5663 5662 5664 5665 5662 5661 5661 5660 5658 5658 5657 5657 5656 5656 5656 5655 5654 5653 5652 5650 5648 5646 5644 5642
5664 5666 5666 5667 5667 5668 5668 5669 5668 5667 5666 5665 5662 5659 5658 5658 5658 5658 5658 5656 5657 5657 5658 5657 5655 5654 5654 5653 5651 5651 5650 5650 5649 5649 5648 5648 5647 5646 5645 5643 5641 5639 5637 5634
5652 5653 5653 5654 5655 5657 5657 5657 5656 5655 5656 5656 5653 5651 5650 5651 5651 5650 5649 5648 5650 5651 5650 5648 5647 5647 5647 5645 5644 5645 5645 5644 5643 5642 5640 5640 5640 5638 5637 5635 5633 5632 5630 5628
5642 5643 5643 5643 5644 5645 5647 5647 5647 5646 5646 5646 5645 5643 5642 5642 5644 5643 5643 5642 5643 5641 5642 5642 5641 5639 5638 5637 5638 5638 5638 5637 5636 5635 5634 5632 5632 5630 5628 5627 5626 5624 5623 5621
5631 5632 5633 5634 5635 5635 5637 5638 5638 5637 5637 5636 5636 5635 5635 5636 5637 5635 5634 5636 5637 5634 5634 5634 5632 5631 5630 5631 5631 5631 5631 5630 5629 5628 5627 5626 5624 5623 5621 5620 5619 5618 5616 5615
5621 5623 5624 5625 5627 5627 5627 5629 5630 5630 5631 5630 5631 5630 5630 5629 5630 5631 5631 5629 5627 5626 5626 5624 5623 5623 5622 5624 5624 5624 5624 5623 5622 5621 5619 5618 5617 5616 5615 5614 5612 5611 5610 5608
5615 5616 5618 5618 5619 5620 5621 5622 5623 5623 5623 5624 5624 5625 5625 5625 5624 5625 5625 5623 5621 5620 5621 5619 5617 5616 5616 5617 5618 5618 5617 5616 5615 5614 5612 5611 5611 5610 5609 5608 5607 5605 5603 5601
5610 5611 5612 5612 5613 5614 5616 5616 5616 5616 5616 5615 5615 5616 5617 5618 5619 5618 5617 5617 5616 5615 5615 5615 5614 5611 5612 5612 5611 5611 5610 5609 5608 5606 5606 5605 5604 5603 5602 5601 5600 5598 5595 5592
5607 5608 5608 5609 5610 5611 5612 5612 5611 5610 5610 5608 5607 5608 5609 5609 5610 5610 5610 5610 5610 5610 5610 5609 5609 5608 5607 5607 5606 5604 5604 5603 5602 5599 5598 5598 5597 5595 5594 5592 5591 5589 5586 5584